W5TTY Weather Reports


Display with metric or nautical units.
time (UTC)temp
F
wind
direction
speed
MPH
gust
MPH
rain 1hr
in
rain 24hr
in
rain mn
in
humidity
%
barometer
mb
20260831030828 84 163 4.0 8.0 0.00 0.00 0.00 51 1014.1
20260831030331 84 171 4.0 7.0 0.00 0.00 0.00 51 1014.0
20260831025826 84 172 3.0 6.0 0.00 0.00 0.00 51 1013.9
20260831025401 84 182 3.0 4.0 0.00 0.00 0.00 50 1013.8
20260831024844 84 178 2.0 4.0 0.00 0.00 0.00 50 1013.6
20260831024326 85 178 3.0 4.0 0.00 0.00 0.00 50 1013.5
20260831023828 85 171 3.0 6.0 0.00 0.00 0.00 49 1013.4
20260831023333 85 184 3.0 6.0 0.00 0.00 0.00 49 1013.4
20260831022838 85 177 3.0 5.0 0.00 0.00 0.00 49 1013.3
20260831022340 86 180 3.0 4.0 0.00 0.00 0.00 49 1013.2
20260831021831 86 176 2.0 4.0 0.00 0.00 0.00 48 1013.2
20260831021329 87 178 2.0 4.0 0.00 0.00 0.00 48 1013.2
20260831020835 87 175 3.0 4.0 0.00 0.00 0.00 48 1013.1
20260831020320 87 171 3.0 4.0 0.00 0.00 0.00 48 1013.1
20260831015826 88 162 2.0 5.0 0.00 0.00 0.00 48 1013.0
20260831015327 88 163 2.0 5.0 0.00 0.00 0.00 48 1013.0
20260831014828 88 164 2.0 5.0 0.00 0.00 0.00 48 1012.9
20260831014335 89 166 3.0 5.0 0.00 0.00 0.00 47 1012.8
20260831013846 89 161 2.0 5.0 0.00 0.00 0.00 47 1012.9
20260831013327 89 158 2.0 7.0 0.00 0.00 0.00 47 1012.8
20260831012833 90 157 3.0 7.0 0.00 0.00 0.00 47 1012.8
20260831012335 90 142 3.0 8.0 0.00 0.00 0.00 47 1012.8
20260831011907 90 142 4.0 8.0 0.00 0.00 0.00 47 1012.8
20260831011329 91 163 4.0 8.0 0.00 0.00 0.00 47 1012.7
20260831010834 91 150 4.0 9.0 0.00 0.00 0.00 46 1012.7
20260831010320 91 129 4.0 9.0 0.00 0.00 0.00 46 1012.7
20260831005827 92 122 4.0 8.0 0.00 0.00 0.00 46 1012.7
20260831005330 92 153 3.0 7.0 0.00 0.00 0.00 46 1012.7
20260831004834 92 129 4.0 8.0 0.00 0.00 0.00 46 1012.6
20260831004321 93 133 4.0 9.0 0.00 0.00 0.00 46 1012.5
20260831003828 93 148 5.0 9.0 0.00 0.00 0.00 46 1012.5
20260831003327 93 121 4.0 8.0 0.00 0.00 0.00 46 1012.5
20260831002834 94 140 4.0 8.0 0.00 0.00 0.00 46 1012.4
20260831002335 94 129 4.0 8.0 0.00 0.00 0.00 46 1012.5
20260831001817 94 143 4.0 8.0 0.00 0.00 0.00 46 1012.5
20260831001330 94 109 4.0 8.0 0.00 0.00 0.00 46 1012.6
20260831000859 95 194 5.0 11.0 0.00 0.00 0.00 46 1012.5
20260831000325 95 174 5.0 11.0 0.00 0.00 0.00 46 1012.6
20260830235826 95 123 6.0 11.0 0.00 0.00 0.00 46 1012.6
20260830235328 95 141 6.0 12.0 0.00 0.00 0.00 46 1012.6
20260830234839 96 97 6.0 12.0 0.00 0.00 0.00 46 1012.5
20260830234327 96 178 6.0 11.0 0.00 0.00 0.00 46 1012.6
20260830233831 96 123 4.0 13.0 0.00 0.00 0.00 47 1012.5
20260830233337 96 88 8.0 13.0 0.00 0.00 0.00 47 1012.5
20260830232851 97 188 7.0 15.0 0.00 0.00 0.00 47 1012.5
20260830232349 97 180 8.0 15.0 0.00 0.00 0.00 47 1012.5
20260830231835 97 105 6.0 14.0 0.00 0.00 0.00 47 1012.5
20260830231338 97 109 7.0 13.0 0.00 0.00 0.00 48 1012.5
20260830230829 97 177 6.0 12.0 0.00 0.00 0.00 48 1012.5
20260830230335 97 128 2.0 11.0 0.00 0.00 0.00 48 1012.4
20260830225822 98 166 7.0 12.0 0.00 0.00 0.00 48 1012.5
20260830225325 98 140 5.0 12.0 0.00 0.00 0.00 49 1012.5
20260830224829 97 171 6.0 11.0 0.00 0.00 0.00 49 1012.5
20260830224335 98 153 6.0 15.0 0.00 0.00 0.00 49 1012.6
20260830223821 98 148 4.0 13.0 0.00 0.00 0.00 50 1012.7
20260830223327 98 130 3.0 12.0 0.00 0.00 0.00 50 1012.7
20260830222833 97 159 7.0 12.0 0.00 0.00 0.00 51 1012.7
20260830222337 97 186 6.0 10.0 0.00 0.00 0.00 51 1012.7
20260830221823 97 186 2.0 15.0 0.00 0.00 0.00 51 1012.7
20260830221329 97 111 9.0 15.0 0.00 0.00 0.00 52 1012.7
20260830220858 97 143 6.0 14.0 0.00 0.00 0.00 52 1012.7
20260830220338 97 174 8.0 13.0 0.00 0.00 0.00 52 1012.8
20260830215823 97 138 5.0 10.0 0.00 0.00 0.00 53 1012.9
20260830215322 97 150 4.0 12.0 0.00 0.00 0.00 53 1012.9
20260830214824 97 167 6.0 12.0 0.00 0.00 0.00 54 1013.0
20260830214335 97 111 4.0 8.0 0.00 0.00 0.00 54 1013.0
20260830213841 97 200 4.0 16.0 0.00 0.00 0.00 55 1013.1
20260830213328 97 165 8.0 16.0 0.00 0.00 0.00 55 1013.1
20260830212830 97 151 4.0 12.0 0.00 0.00 0.00 55 1013.2
20260830212330 97 205 3.0 10.0 0.00 0.00 0.00 56 1013.2
20260830211836 97 151 5.0 11.0 0.00 0.00 0.00 57 1013.2
20260830211349 97 126 4.0 11.0 0.00 0.00 0.00 57 1013.3
20260830210845 97 217 7.0 11.0 0.00 0.00 0.00 57 1013.3
20260830210328 96 192 5.0 13.0 0.00 0.00 0.00 58 1013.3
20260830205836 96 150 6.0 13.0 0.00 0.00 0.00 58 1013.4
20260830205347 96 186 5.0 11.0 0.00 0.00 0.00 58 1013.5
20260830204829 96 227 6.0 11.0 0.00 0.00 0.00 59 1013.5
20260830204355 97 179 3.0 16.0 0.00 0.00 0.00 59 1013.7
20260830203819 97 200 6.0 16.0 0.00 0.00 0.00 60 1013.7
20260830203321 97 105 6.0 18.0 0.00 0.00 0.00 61 1013.8
20260830202833 96 126 6.0 18.0 0.00 0.00 0.00 61 1013.8
20260830202335 96 178 2.0 15.0 0.00 0.00 0.00 62 1014.0
20260830201822 96 176 7.0 15.0 0.00 0.00 0.00 63 1014.0
20260830201327 95 238 4.0 13.0 0.00 0.00 0.00 62 1014.2
20260830200833 96 109 7.0 13.0 0.00 0.00 0.00 63 1014.2
20260830200338 96 127 8.0 13.0 0.00 0.00 0.00 64 1014.3
20260830195824 95 128 7.0 12.0 0.00 0.00 0.00 64 1014.4
20260830195323 95 144 6.0 12.0 0.00 0.00 0.00 65 1014.5
20260830194850 95 200 5.0 15.0 0.00 0.00 0.00 65 1014.6
20260830194336 95 118 5.0 10.0 0.00 0.00 0.00 65 1014.6
20260830193823 95 135 6.0 9.0 0.00 0.00 0.00 66 1014.6
20260830193354 95 135 2.0 11.0 0.00 0.00 0.00 67 1014.7
20260830192839 95 134 5.0 11.0 0.00 0.00 0.00 67 1014.8
20260830192343 95 155 5.0 10.0 0.00 0.00 0.00 68 1014.8
20260830191829 94 153 6.0 10.0 0.00 0.00 0.00 69 1014.9
20260830191332 94 134 5.0 10.0 0.00 0.00 0.00 69 1015.0
20260830190836 94 165 5.0 10.0 0.00 0.00 0.00 69 1015.0
20260830190322 94 186 5.0 12.0 0.00 0.00 0.00 70 1015.2
20260830185828 94 121 6.0 12.0 0.00 0.00 0.00 70 1015.3
20260830185329 93 172 5.0 9.0 0.00 0.00 0.00 71 1015.4
20260830184835 93 185 4.0 9.0 0.00 0.00 0.00 71 1015.5
20260830184406 93 302 3.0 10.0 0.00 0.00 0.00 72 1015.5
20260830183849 93 230 5.0 10.0 0.00 0.00 0.00 72 1015.7
20260830183333 92 150 5.0 10.0 0.00 0.00 0.00 73 1015.7
20260830182840 92 190 4.0 14.0 0.00 0.00 0.00 73 1015.8
20260830182353 92 184 6.0 14.0 0.00 0.00 0.00 73 1016.0
20260830181836 92 190 6.0 11.0 0.00 0.00 0.00 73 1016.0
20260830181344 92 57 3.0 10.0 0.00 0.00 0.00 74 1016.1
20260830180825 92 215 4.0 10.0 0.00 0.00 0.00 75 1016.2
20260830180336 92 196 6.0 14.0 0.00 0.00 0.00 75 1016.3
20260830175840 91 121 5.0 14.0 0.00 0.00 0.00 76 1016.3
20260830175344 91 165 3.0 11.0 0.00 0.00 0.00 76 1016.4
20260830174825 91 163 5.0 11.0 0.00 0.00 0.00 77 1016.5
20260830174329 91 147 3.0 11.0 0.00 0.00 0.00 77 1016.5
20260830173835 91 112 3.0 12.0 0.00 0.00 0.00 77 1016.5
20260830173318 91 209 6.0 12.0 0.00 0.00 0.00 78 1016.7
20260830172851 91 147 4.0 12.0 0.00 0.00 0.00 78 1016.7
20260830172400 91 180 9.0 12.0 0.00 0.00 0.00 79 1016.8
20260830171843 90 261 6.0 10.0 0.00 0.00 0.00 79 1016.8
20260830171349 90 127 5.0 10.0 0.00 0.00 0.00 79 1017.0
20260830170829 90 155 2.0 10.0 0.00 0.00 0.00 80 1017.1
20260830170402 89 200 6.0 11.0 0.00 0.00 0.00 80 1017.2
20260830165820 89 207 5.0 12.0 0.00 0.00 0.00 80 1017.2
20260830165330 89 177 6.0 12.0 0.00 0.00 0.00 80 1017.3
20260830164833 89 242 3.0 11.0 0.00 0.00 0.00 81 1017.3
20260830164319 89 242 5.0 12.0 0.00 0.00 0.00 81 1017.3
20260830163824 89 209 8.0 12.0 0.00 0.00 0.00 81 1017.3
20260830163328 89 219 7.0 13.0 0.00 0.00 0.00 82 1017.3
20260830162834 89 190 3.0 9.0 0.00 0.00 0.00 82 1017.3
20260830162405 88 237 4.0 13.0 0.00 0.00 0.00 82 1017.2
20260830161818 88 234 7.0 13.0 0.00 0.00 0.00 82 1017.3
20260830161350 88 219 6.0 17.0 0.00 0.00 0.00 83 1017.3
20260830160834 87 229 4.0 17.0 0.00 0.00 0.00 83 1017.3
20260830160339 87 239 6.0 14.0 0.00 0.00 0.00 83 1017.3
20260830155850 87 238 3.0 14.0 0.00 0.00 0.00 83 1017.3
20260830155333 86 254 5.0 14.0 0.00 0.00 0.00 83 1017.3
20260830154858 86 209 7.0 11.0 0.00 0.00 0.00 83 1017.4
20260830154339 86 263 4.0 8.0 0.00 0.00 0.00 83 1017.3
20260830153843 85 238 2.0 10.0 0.00 0.00 0.00 83 1017.3
20260830153324 85 156 6.0 13.0 0.00 0.00 0.00 83 1017.3
20260830152828 85 240 7.0 13.0 0.00 0.00 0.00 83 1017.4
20260830152328 85 216 5.0 15.0 0.00 0.00 0.00 83 1017.3
20260830151834 84 219 5.0 15.0 0.00 0.00 0.00 83 1017.3
20260830151339 84 238 6.0 14.0 0.00 0.00 0.00 83 1017.3
20260830150830 84 251 9.0 14.0 0.00 0.00 0.00 83 1017.2
20260830150335 83 195 4.0 12.0 0.00 0.00 0.00 83 1017.2
20260830145823 83 214 5.0 12.0 0.00 0.00 0.00 83 1017.1
20260830145326 83 223 3.0 12.0 0.00 0.00 0.00 83 1017.2
20260830144829 82 246 5.0 14.0 0.00 0.00 0.00 83 1017.2
20260830144331 82 255 8.0 14.0 0.00 0.00 0.00 83 1017.2
20260830143818 81 217 7.0 12.0 0.00 0.00 0.00 83 1017.2
20260830143319 81 230 6.0 18.0 0.00 0.00 0.00 82 1017.2
20260830142821 81 228 7.0 18.0 0.00 0.00 0.00 82 1017.2
20260830142330 81 215 6.0 13.0 0.00 0.00 0.00 82 1017.1
20260830141836 81 210 6.0 15.0 0.00 0.00 0.00 82 1017.1
20260830141343 81 232 6.0 12.0 0.00 0.00 0.00 82 1017.2
20260830140827 80 177 7.0 11.0 0.00 0.00 0.00 81 1017.1
20260830140329 80 207 7.0 12.0 0.00 0.00 0.00 81 1017.2
20260830135830 80 229 5.0 14.0 0.00 0.00 0.00 81 1017.2
20260830135334 80 198 5.0 15.0 0.00 0.00 0.00 81 1017.2
20260830134819 79 223 6.0 14.0 0.00 0.00 0.00 81 1017.2
20260830134321 79 217 4.0 9.0 0.00 0.00 0.00 81 1017.2
20260830133832 78 234 6.0 9.0 0.00 0.00 0.00 81 1017.2
20260830133356 78 219 4.0 6.0 0.00 0.00 0.00 80 1017.2